Home > Weather > United Kingdom > Exeter > Past weeks

Flag for United Kingdom Weather past 2 weeks in Exeter, England, United Kingdom

54 °F

Passing clouds.

Feels Like: 50 °F
Forecast: N/A
Wind: 13 mph from Southwest

Location: Exeter Airport

Current Time: Dec 1, 2015 at 10:08:25 PM

Latest Report: Dec 1, 2015 at 9:20 PM

Visibility: N/A

Pressure: 30.24 "Hg

Humidity: 82%

Dew point: 48 °F

Location of ExeterLocation

Historic Weather in Exeter — Graph


Exeter temperature yesterday

Maximum temperature yesterday: 57 °F (at 7:20 PM)
Minimum temperature yesterday: 52 °F (at 9:50 AM)
Average temperature yesterday: 55 °F

Past Weeks' High & Low Weather Summary

High63 °F (Nov 17, 1:20 PM)100% (Nov 16, 8:20 PM)30.30 "Hg (Nov 16, 8:20 PM)
Low27 °F (Nov 23, 7:50 AM)53% (Nov 21, 11:20 AM)29.59 "Hg (Nov 17, 11:50 AM)
Average50 °F87%29.97 "Hg
* Reported Nov 16 8:20 PM — Dec 1 8:20 PM, Exeter, Weather by CustomWeather, © 2015

Note: Actual official high and low records may vary slightly from our data, if they occured in-between our weather recording intervals... More about our weather records


Exeter weather history for previous 24 hours

Time TempWeatherWind HumidityBarometerVisibility
8:20 PM
Tue, Dec 1
54 °FPassing clouds.10 mph82%30.24 "HgN/A
7:50 PM54 °FPassing clouds.13 mph82%30.24 "HgN/A
7:20 PM54 °FPassing clouds.10 mph82%30.24 "HgN/A
6:50 PM54 °FPassing clouds.12 mph82%30.24 "HgN/A
6:20 PM54 °FPassing clouds.12 mph82%30.24 "HgN/A
5:50 PM54 °FPassing clouds.12 mph82%30.24 "HgN/A
5:20 PM54 °FPassing clouds.13 mph77%30.24 "HgN/A
4:50 PM55 °FPassing clouds.13 mph67%30.24 "HgN/A
4:20 PM55 °FPassing clouds.13 mph72%30.24 "HgN/A
3:50 PM55 °FPartly sunny.14 mph72%30.24 "HgN/A
3:20 PM55 °FPartly sunny.14 mph72%30.24 "HgN/A
2:50 PM55 °FPartly sunny.20 mph67%30.24 "HgN/A
2:20 PM57 °FPartly sunny.14 mph67%30.24 "HgN/A
1:50 PM57 °FPartly sunny.16 mph67%30.24 "HgN/A
1:20 PM57 °FPartly sunny.13 mph72%30.24 "HgN/A
12:50 PM57 °FPartly sunny.13 mph72%30.27 "HgN/A
12:20 PM57 °FPartly sunny.14 mph72%30.27 "HgN/A
11:50 AM57 °FPartly sunny.13 mph72%30.27 "HgN/A
11:20 AM55 °FPartly sunny.13 mph82%30.27 "HgN/A
10:50 AM55 °FPartly sunny.12 mph82%30.27 "HgN/A
10:20 AM55 °FPartly sunny.15 mph82%30.27 "HgN/A
9:50 AM55 °FPartly sunny.10 mph82%30.24 "HgN/A
9:20 AM55 °FPartly sunny.8 mph82%30.24 "HgN/A
8:50 AM55 °FPartly sunny.8 mph82%30.24 "HgN/A
7:50 AM55 °FPassing clouds.10 mph82%30.24 "HgN/A
7:20 AM55 °FPassing clouds.7 mph88%30.21 "HgN/A
6:50 AM55 °FPassing clouds.9 mph88%30.21 "HgN/A
6:20 AM55 °FPassing clouds.9 mph88%30.21 "HgN/A
1:50 AM55 °FPassing clouds.15 mph94%30.18 "HgN/A
1:20 AM57 °FPassing clouds.14 mph88%30.15 "HgN/A
12:50 AM55 °FPassing clouds.14 mph94%30.15 "HgN/A
11:50 PM
Mon, Nov 30
55 °FPassing clouds.14 mph94%30.15 "HgN/A
10:50 PM57 °FPassing clouds.16 mph88%30.12 "HgN/A
10:20 PM57 °FPassing clouds.16 mph88%30.12 "HgN/A
Weather by CustomWeather, © 2015

See weather overviewHow to use our weather pages